| time (UTC) | temp F | wind direction | speed MPH | gust MPH | rain 1hr in | rain 24hr in | rain mn in | humidity % | barometer mb |
| 20260506091436 | 52 | 222 | 0.0 | 0.0 | 0.00 | 0.00 | 0.00 | 95 | 1019.3 |
| 20260506090935 | 52 | 222 | 0.0 | 0.0 | 0.00 | 0.00 | 0.00 | 95 | 1019.4 |
| 20260506090432 | 52 | 222 | 0.0 | 0.0 | 0.00 | 0.00 | 0.00 | 95 | 1019.4 |
| 20260506085931 | 52 | 222 | 0.0 | 0.0 | 0.00 | 0.00 | 0.00 | 95 | 1019.4 |
| 20260506085431 | 52 | 222 | 0.0 | 0.0 | 0.00 | 0.01 | 0.00 | 95 | 1019.4 |
| 20260506084931 | 52 | 222 | 0.0 | 0.0 | 0.00 | 0.01 | 0.00 | 95 | 1019.4 |
| 20260506084431 | 52 | 222 | 0.0 | 0.0 | 0.00 | 0.01 | 0.00 | 95 | 1019.3 |
| 20260506083930 | 52 | 222 | 0.0 | 0.0 | 0.00 | 0.01 | 0.00 | 95 | 1019.3 |
| 20260506083430 | 52 | 222 | 0.0 | 0.0 | 0.00 | 0.01 | 0.00 | 95 | 1019.4 |
| 20260506083149 | 52 | 222 | 0.0 | 0.0 | 0.00 | 0.02 | 0.00 | 95 | 1019.4 |
| 20260506082424 | 52 | 222 | 0.0 | 0.0 | 0.00 | 0.02 | 0.00 | 95 | 1019.4 |
| 20260506081923 | 52 | 222 | 0.0 | 0.0 | 0.00 | 0.02 | 0.00 | 95 | 1019.4 |
| 20260506081639 | 52 | 222 | 0.0 | 0.0 | 0.00 | 0.02 | 0.00 | 95 | 1019.4 |
| 20260506081132 | 52 | 222 | 0.0 | 0.0 | 0.00 | 0.02 | 0.00 | 95 | 1019.4 |
| 20260506080405 | 52 | 222 | 0.0 | 0.0 | 0.00 | 0.02 | 0.00 | 95 | 1019.4 |
| 20260506073329 | 53 | 222 | 0.0 | 0.0 | 0.00 | 0.02 | 0.00 | 95 | 1019.2 |
| 20260506072829 | 53 | 222 | 0.0 | 0.0 | 0.00 | 0.02 | 0.00 | 95 | 1019.2 |
| 20260506072330 | 52 | 222 | 0.0 | 0.0 | 0.00 | 0.02 | 0.00 | 95 | 1019.1 |
| 20260506071828 | 52 | 222 | 0.0 | 0.0 | 0.00 | 0.02 | 0.00 | 95 | 1019.1 |
| 20260506071326 | 52 | 222 | 0.0 | 0.0 | 0.00 | 0.02 | 0.00 | 95 | 1019.0 |
| 20260506070828 | 52 | 222 | 0.0 | 0.0 | 0.00 | 0.02 | 0.00 | 95 | 1019.0 |
| 20260506070328 | 52 | 222 | 0.0 | 0.0 | 0.00 | 0.02 | 0.00 | 94 | 1019.0 |
| 20260506062316 | 53 | 222 | 0.0 | 0.0 | 0.00 | 0.03 | 0.02 | 95 | 1018.7 |
| 20260506061814 | 53 | 222 | 0.0 | 0.0 | 0.00 | 0.03 | 0.02 | 94 | 1018.6 |
| 20260506061315 | 52 | 222 | 0.0 | 0.0 | 0.00 | 0.03 | 0.02 | 94 | 1018.5 |
| 20260506060813 | 53 | 222 | 0.0 | 0.0 | 0.00 | 0.03 | 0.02 | 94 | 1018.5 |
| 20260506060315 | 53 | 222 | 0.0 | 0.0 | 0.00 | 0.03 | 0.02 | 94 | 1018.4 |
| 20260506051236 | 52 | 222 | 0.0 | 0.0 | 0.00 | 0.07 | 0.02 | 94 | 1018.0 |
| 20260506050734 | 53 | 222 | 0.0 | 0.0 | 0.00 | 0.07 | 0.02 | 94 | 1018.0 |
| 20260506050233 | 52 | 222 | 0.0 | 0.0 | 0.00 | 0.08 | 0.02 | 94 | 1018.0 |
| 20260506044727 | 53 | 222 | 0.0 | 0.0 | 0.00 | 0.10 | 0.02 | 94 | 1017.9 |
| 20260506044224 | 53 | 222 | 0.0 | 0.0 | 0.00 | 0.10 | 0.02 | 94 | 1017.9 |
| 20260506043721 | 53 | 222 | 0.0 | 0.0 | 0.00 | 0.10 | 0.02 | 94 | 1017.9 |
| 20260506043221 | 53 | 222 | 0.0 | 0.0 | 0.00 | 0.10 | 0.02 | 94 | 1017.7 |
| 20260506042938 | 53 | 222 | 0.0 | 0.0 | 0.00 | 0.10 | 0.02 | 94 | 1017.8 |
| 20260506042215 | 53 | 222 | 0.0 | 0.0 | 0.00 | 0.10 | 0.02 | 94 | 1017.8 |
| 20260506041714 | 53 | 222 | 0.0 | 0.0 | 0.00 | 0.11 | 0.02 | 94 | 1017.7 |
| 20260506041212 | 53 | 222 | 0.0 | 0.0 | 0.00 | 0.11 | 0.02 | 94 | 1017.6 |
| 20260506040710 | 53 | 222 | 0.0 | 0.0 | 0.00 | 0.11 | 0.02 | 94 | 1017.6 |
| 20260506040207 | 53 | 222 | 0.0 | 0.0 | 0.00 | 0.11 | 0.02 | 93 | 1017.4 |
| 20260506035706 | 53 | 222 | 0.0 | 0.0 | 0.00 | 0.13 | 0.02 | 94 | 1017.2 |
| 20260506035426 | 53 | 222 | 0.0 | 0.0 | 0.00 | 0.14 | 0.02 | 94 | 1017.2 |
| 20260506034703 | 53 | 222 | 0.0 | 0.0 | 0.00 | 0.15 | 0.02 | 94 | 1017.2 |
| 20260506034201 | 53 | 222 | 0.0 | 0.0 | 0.00 | 0.16 | 0.02 | 93 | 1017.1 |
| 20260506033658 | 53 | 222 | 0.0 | 0.0 | 0.00 | 0.17 | 0.02 | 93 | 1017.2 |
| 20260506033155 | 53 | 222 | 0.0 | 0.0 | 0.00 | 0.18 | 0.02 | 93 | 1017.2 |
| 20260506032653 | 53 | 222 | 0.0 | 0.0 | 0.00 | 0.19 | 0.02 | 93 | 1017.2 |
| 20260506032152 | 53 | 222 | 0.0 | 0.0 | 0.00 | 0.20 | 0.02 | 93 | 1017.1 |
| 20260506031651 | 53 | 222 | 0.0 | 0.0 | 0.00 | 0.21 | 0.02 | 93 | 1016.9 |
| 20260506031151 | 53 | 222 | 0.0 | 0.0 | 0.00 | 0.22 | 0.02 | 92 | 1016.9 |
| 20260506030651 | 53 | 222 | 0.0 | 0.0 | 0.00 | 0.23 | 0.02 | 92 | 1016.8 |
| 20260506030411 | 53 | 222 | 0.0 | 0.0 | 0.00 | 0.25 | 0.02 | 92 | 1016.8 |
| 20260506025645 | 53 | 222 | 0.0 | 0.0 | 0.00 | 0.27 | 0.02 | 91 | 1016.6 |
| 20260506025145 | 53 | 222 | 0.0 | 0.0 | 0.00 | 0.29 | 0.02 | 91 | 1016.4 |
| 20260506024644 | 54 | 222 | 0.0 | 0.0 | 0.00 | 0.31 | 0.02 | 91 | 1016.4 |
| 20260506024141 | 54 | 222 | 0.0 | 0.0 | 0.00 | 0.33 | 0.02 | 90 | 1016.5 |
| 20260506023637 | 54 | 222 | 0.0 | 0.0 | 0.00 | 0.35 | 0.02 | 90 | 1016.5 |
| 20260506023135 | 54 | 222 | 0.0 | 0.0 | 0.00 | 0.37 | 0.02 | 89 | 1016.4 |
| 20260506022633 | 54 | 222 | 0.0 | 0.0 | 0.00 | 0.39 | 0.02 | 89 | 1016.6 |
| 20260506022348 | 54 | 222 | 0.0 | 0.0 | 0.00 | 0.41 | 0.02 | 88 | 1016.3 |
| 20260506021846 | 54 | 222 | 0.0 | 0.0 | 0.00 | 0.42 | 0.02 | 88 | 1016.3 |
| 20260506021117 | 54 | 222 | 0.0 | 0.0 | 0.00 | 0.43 | 0.02 | 89 | 1016.3 |
| 20260506020610 | 54 | 222 | 0.0 | 0.0 | 0.00 | 0.44 | 0.02 | 90 | 1016.3 |
| 20260506020104 | 54 | 220 | 0.0 | 0.0 | 0.00 | 0.45 | 0.02 | 90 | 1016.0 |
| 20260506015558 | 54 | 220 | 0.0 | 0.0 | 0.00 | 0.45 | 0.02 | 90 | 1016.1 |
| 20260506015053 | 54 | 220 | 0.0 | 0.0 | 0.00 | 0.45 | 0.02 | 90 | 1016.3 |
| 20260506014546 | 54 | 220 | 0.0 | 0.0 | 0.00 | 0.46 | 0.02 | 90 | 1016.3 |
| 20260506014047 | 54 | 220 | 0.0 | 0.0 | 0.00 | 0.47 | 0.02 | 90 | 1016.5 |
| 20260506013815 | 54 | 220 | 0.0 | 0.0 | 0.00 | 0.48 | 0.02 | 90 | 1016.5 |
| 20260506013042 | 54 | 220 | 0.0 | 0.0 | 0.00 | 0.49 | 0.02 | 90 | 1016.5 |
| 20260506012539 | 54 | 220 | 0.0 | 0.0 | 0.00 | 0.51 | 0.02 | 90 | 1016.6 |
| 20260506012038 | 54 | 220 | 0.0 | 0.0 | 0.00 | 0.52 | 0.02 | 91 | 1016.5 |
| 20260506011537 | 54 | 220 | 0.0 | 0.0 | 0.00 | 0.55 | 0.02 | 90 | 1016.4 |
| 20260506011037 | 54 | 220 | 0.0 | 0.0 | 0.00 | 0.56 | 0.02 | 90 | 1016.4 |
| 20260506010536 | 54 | 220 | 0.0 | 0.0 | 0.00 | 0.58 | 0.02 | 91 | 1016.4 |
| 20260506010034 | 54 | 220 | 0.0 | 0.0 | 0.00 | 0.59 | 0.02 | 90 | 1016.3 |
| 20260506005531 | 54 | 220 | 0.0 | 0.0 | 0.00 | 0.59 | 0.02 | 90 | 1016.3 |
| 20260506005030 | 54 | 220 | 0.0 | 0.0 | 0.00 | 0.59 | 0.02 | 90 | 1016.2 |
| 20260506004528 | 54 | 220 | 0.0 | 0.0 | 0.00 | 0.59 | 0.02 | 90 | 1016.2 |
| 20260506004025 | 54 | 220 | 0.0 | 0.0 | 0.00 | 0.60 | 0.02 | 90 | 1016.1 |
| 20260506003523 | 54 | 220 | 0.0 | 0.0 | 0.00 | 0.61 | 0.02 | 89 | 1016.0 |
| 20260506003021 | 54 | 220 | 0.0 | 0.0 | 0.00 | 0.63 | 0.02 | 90 | 1016.0 |
| 20260506002519 | 54 | 220 | 0.0 | 0.0 | 0.00 | 0.64 | 0.02 | 90 | 1016.0 |
| 20260506002250 | 54 | 220 | 0.0 | 0.0 | 0.00 | 0.65 | 0.02 | 91 | 1016.0 |
| 20260506001516 | 54 | 220 | 0.0 | 0.0 | 0.00 | 0.65 | 0.02 | 91 | 1016.0 |
| 20260506001238 | 54 | 220 | 0.0 | 0.0 | 0.00 | 0.66 | 0.02 | 91 | 1016.0 |
| 20260506000735 | 54 | 220 | 0.0 | 0.0 | 0.00 | 0.67 | 0.02 | 90 | 1016.0 |
| 20260506000018 | 54 | 220 | 0.0 | 0.0 | 0.00 | 0.68 | 0.02 | 90 | 1016.0 |
| 20260505235515 | 54 | 220 | 0.0 | 0.0 | 0.00 | 0.68 | 0.02 | 91 | 1015.9 |
| 20260505235015 | 54 | 220 | 0.0 | 0.0 | 0.00 | 0.69 | 0.02 | 90 | 1015.9 |
| 20260505234516 | 54 | 220 | 0.0 | 0.0 | 0.00 | 0.70 | 0.02 | 89 | 1015.9 |
| 20260505234015 | 53 | 220 | 0.0 | 0.0 | 0.00 | 0.71 | 0.02 | 88 | 1015.9 |
| 20260505233516 | 54 | 220 | 0.0 | 0.0 | 0.00 | 0.72 | 0.02 | 89 | 1015.9 |
| 20260505233014 | 54 | 220 | 0.0 | 0.0 | 0.00 | 0.73 | 0.02 | 90 | 1015.8 |
| 20260505232741 | 53 | 220 | 0.0 | 0.0 | 0.00 | 0.75 | 0.02 | 90 | 1015.9 |
| 20260505232013 | 53 | 220 | 0.0 | 0.0 | 0.00 | 0.76 | 0.02 | 89 | 1015.9 |
| 20260505231514 | 53 | 220 | 0.0 | 0.0 | 0.00 | 0.77 | 0.02 | 89 | 1015.9 |
| 20260505231014 | 53 | 220 | 0.0 | 0.0 | 0.00 | 0.79 | 0.02 | 89 | 1015.9 |
| 20260505230514 | 53 | 220 | 0.0 | 0.0 | 0.00 | 0.80 | 0.02 | 90 | 1016.0 |
| 20260505230007 | 53 | 220 | 0.0 | 0.0 | 0.00 | 0.81 | 0.02 | 90 | 1015.9 |
| 20260505225501 | 53 | 220 | 0.0 | 0.0 | 0.00 | 0.82 | 0.02 | 90 | 1015.9 |
| 20260505224955 | 53 | 220 | 0.0 | 0.0 | 0.00 | 0.83 | 0.02 | 91 | 1015.9 |
| 20260505224449 | 53 | 220 | 0.0 | 0.0 | 0.00 | 0.84 | 0.02 | 91 | 1015.9 |
| 20260505223943 | 53 | 220 | 0.0 | 0.0 | 0.00 | 0.85 | 0.02 | 91 | 1015.9 |
| 20260505223704 | 53 | 220 | 0.0 | 0.0 | 0.00 | 0.87 | 0.02 | 91 | 1015.9 |
| 20260505222930 | 53 | 220 | 0.0 | 0.0 | 0.00 | 0.87 | 0.02 | 91 | 1016.0 |
| 20260505222427 | 53 | 220 | 0.0 | 0.0 | 0.00 | 0.87 | 0.02 | 91 | 1016.0 |
| 20260505221924 | 53 | 220 | 0.0 | 0.0 | 0.00 | 0.88 | 0.02 | 90 | 1016.1 |
| 20260505221424 | 53 | 220 | 0.0 | 0.0 | 0.00 | 0.88 | 0.02 | 90 | 1016.1 |
| 20260505221411 | 53 | 220 | 0.0 | 0.0 | 0.00 | 0.89 | 0.02 | 91 | 1016.1 |
| 20260505220424 | 53 | 220 | 0.0 | 0.0 | 0.00 | 0.89 | 0.02 | 90 | 1016.1 |
| 20260505215921 | 53 | 220 | 0.0 | 0.0 | 0.00 | 0.89 | 0.02 | 90 | 1016.1 |
| 20260505215420 | 53 | 220 | 0.0 | 0.0 | 0.00 | 0.89 | 0.02 | 90 | 1016.1 |
| 20260505214918 | 53 | 220 | 0.0 | 0.0 | 0.00 | 0.89 | 0.02 | 90 | 1016.2 |
| 20260505214420 | 53 | 220 | 0.0 | 0.0 | 0.00 | 0.90 | 0.02 | 90 | 1016.2 |
| 20260505213918 | 53 | 220 | 0.0 | 0.0 | 0.00 | 0.91 | 0.02 | 90 | 1016.1 |
| 20260505213646 | 53 | 221 | 0.0 | 0.0 | 0.00 | 0.91 | 0.02 | 91 | 1016.1 |
| 20260505212918 | 53 | 221 | 0.0 | 0.0 | 0.00 | 0.91 | 0.02 | 91 | 1016.2 |
| 20260505212419 | 53 | 229 | 0.0 | 0.0 | 0.00 | 0.93 | 0.02 | 91 | 1016.2 |
| 20260505211917 | 52 | 229 | 0.0 | 0.0 | 0.00 | 0.93 | 0.02 | 91 | 1016.2 |
| 20260505211419 | 52 | 203 | 0.0 | 0.0 | 0.00 | 0.93 | 0.02 | 91 | 1016.2 |
| 20260505210915 | 52 | 221 | 0.0 | 0.0 | 0.00 | 0.94 | 0.02 | 91 | 1016.2 |
| 20260505210419 | 52 | 221 | 0.0 | 0.0 | 0.00 | 0.94 | 0.02 | 91 | 1016.1 |
| 20260505205915 | 52 | 221 | 0.0 | 0.0 | 0.00 | 0.94 | 0.02 | 90 | 1016.1 |
| 20260505205418 | 52 | 222 | 0.0 | 0.0 | 0.00 | 0.95 | 0.02 | 90 | 1016.1 |
| 20260505204916 | 52 | 226 | 0.0 | 0.0 | 0.00 | 0.95 | 0.02 | 91 | 1016.1 |
| 20260505204419 | 53 | 229 | 0.0 | 0.0 | 0.00 | 0.95 | 0.02 | 90 | 1016.1 |
| 20260505203916 | 53 | 194 | 0.0 | 0.0 | 0.00 | 0.95 | 0.02 | 90 | 1016.0 |
| 20260505203418 | 53 | 194 | 0.0 | 0.0 | 0.00 | 0.96 | 0.02 | 90 | 1016.0 |
| 20260505202917 | 53 | 180 | 0.0 | 0.0 | 0.00 | 0.96 | 0.02 | 89 | 1015.9 |
| 20260505202909 | 53 | 184 | 0.0 | 0.0 | 0.00 | 0.97 | 0.02 | 88 | 1015.9 |
| 20260505201913 | 53 | 213 | 0.0 | 0.0 | 0.00 | 0.98 | 0.02 | 89 | 1016.0 |
| 20260505201419 | 53 | 214 | 0.0 | 0.0 | 0.00 | 0.99 | 0.02 | 89 | 1015.9 |
| 20260505201141 | 53 | 227 | 0.0 | 0.0 | 0.00 | 1.00 | 0.02 | 89 | 1015.9 |
| 20260505200417 | 53 | 221 | 0.0 | 0.0 | 0.00 | 1.01 | 0.02 | 88 | 1015.9 |
| 20260505195850 | 54 | 179 | 0.0 | 0.0 | 0.00 | 1.02 | 0.02 | 89 | 1015.9 |
| 20260505195345 | 54 | 179 | 0.0 | 0.0 | 0.00 | 1.04 | 0.02 | 89 | 1015.9 |
| 20260505194838 | 53 | 179 | 0.0 | 0.0 | 0.00 | 1.05 | 0.02 | 88 | 1016.0 |
| 20260505194332 | 53 | 179 | 0.0 | 0.0 | 0.00 | 1.07 | 0.02 | 89 | 1016.0 |
| 20260505193826 | 53 | 179 | 0.0 | 0.0 | 0.00 | 1.08 | 0.02 | 88 | 1016.1 |
| 20260505193320 | 53 | 178 | 0.0 | 0.0 | 0.00 | 1.10 | 0.02 | 90 | 1016.0 |
| 20260505192813 | 53 | 178 | 0.0 | 0.0 | 0.00 | 1.11 | 0.02 | 90 | 1016.0 |
| 20260505192307 | 53 | 178 | 0.0 | 0.0 | 0.00 | 1.12 | 0.02 | 90 | 1016.0 |
| 20260505191802 | 53 | 178 | 0.0 | 0.0 | 0.00 | 1.13 | 0.02 | 90 | 1016.0 |
| 20260505191258 | 53 | 178 | 0.0 | 0.0 | 0.00 | 1.13 | 0.02 | 91 | 1016.0 |
| 20260505190749 | 52 | 178 | 0.0 | 0.0 | 0.00 | 1.13 | 0.02 | 92 | 1015.9 |
| 20260505190244 | 53 | 178 | 0.0 | 0.0 | 0.00 | 1.13 | 0.02 | 91 | 1015.9 |
| 20260505185737 | 53 | 178 | 0.0 | 0.0 | 0.00 | 1.14 | 0.02 | 92 | 1015.8 |
| 20260505185237 | 53 | 178 | 0.0 | 0.0 | 0.00 | 1.14 | 0.02 | 91 | 1015.9 |
| 20260505184734 | 53 | 178 | 0.0 | 0.0 | 0.00 | 1.14 | 0.02 | 92 | 1015.9 |
| 20260505184233 | 53 | 180 | 0.0 | 0.0 | 0.00 | 1.14 | 0.02 | 93 | 1015.8 |
| 20260505183730 | 52 | 180 | 0.0 | 0.0 | 0.00 | 1.14 | 0.02 | 93 | 1015.8 |
| 20260505183228 | 52 | 180 | 0.0 | 0.0 | 0.00 | 1.14 | 0.02 | 93 | 1015.8 |
| 20260505182727 | 52 | 180 | 0.0 | 0.0 | 0.00 | 1.14 | 0.02 | 94 | 1015.8 |
| 20260505182445 | 53 | 180 | 0.0 | 0.0 | 0.00 | 1.14 | 0.02 | 94 | 1015.6 |
| 20260505181723 | 52 | 180 | 0.0 | 0.0 | 0.00 | 1.14 | 0.02 | 94 | 1015.8 |
| 20260505181220 | 52 | 180 | 0.0 | 0.0 | 0.00 | 1.14 | 0.02 | 94 | 1015.6 |
| 20260505180719 | 52 | 180 | 0.0 | 0.0 | 0.00 | 1.14 | 0.02 | 94 | 1015.5 |
| 20260505180216 | 52 | 180 | 0.0 | 0.0 | 0.00 | 1.14 | 0.02 | 94 | 1015.6 |
| 20260505175943 | 52 | 180 | 0.0 | 0.0 | 0.00 | 1.14 | 0.02 | 94 | 1015.6 |
| 20260505175212 | 52 | 180 | 0.0 | 0.0 | 0.00 | 1.14 | 0.02 | 95 | 1015.5 |
| 20260505174710 | 51 | 180 | 0.0 | 0.0 | 0.00 | 1.14 | 0.02 | 95 | 1015.4 |
| 20260505174207 | 51 | 180 | 0.0 | 0.0 | 0.00 | 1.14 | 0.02 | 95 | 1015.4 |
| 20260505173709 | 51 | 180 | 0.0 | 0.0 | 0.00 | 1.14 | 0.02 | 95 | 1015.4 |
| 20260505173208 | 51 | 180 | 0.0 | 0.0 | 0.00 | 1.14 | 0.02 | 95 | 1015.3 |
| 20260505172709 | 51 | 179 | 0.0 | 0.0 | 0.00 | 1.14 | 0.02 | 95 | 1015.3 |
| 20260505172205 | 51 | 178 | 0.0 | 0.0 | 0.00 | 1.14 | 0.02 | 95 | 1015.3 |
| 20260505171705 | 51 | 178 | 0.0 | 0.0 | 0.00 | 1.14 | 0.02 | 95 | 1015.3 |
| 20260505171203 | 51 | 178 | 0.0 | 0.0 | 0.00 | 1.15 | 0.02 | 95 | 1015.3 |
| 20260505170704 | 51 | 177 | 0.0 | 0.0 | 0.00 | 1.15 | 0.02 | 95 | 1015.3 |
| 20260505170205 | 50 | 177 | 0.0 | 0.0 | 0.00 | 1.15 | 0.02 | 95 | 1015.3 |
| 20260505170145 | 51 | 176 | 0.0 | 0.0 | 0.00 | 1.16 | 0.02 | 95 | 1015.3 |
| 20260505165205 | 50 | 176 | 0.0 | 0.0 | 0.00 | 1.16 | 0.02 | 95 | 1015.4 |
| 20260505164703 | 51 | 176 | 0.0 | 0.0 | 0.00 | 1.16 | 0.02 | 96 | 1015.3 |
| 20260505164204 | 50 | 176 | 0.0 | 0.0 | 0.00 | 1.16 | 0.02 | 95 | 1015.3 |
| 20260505163927 | 50 | 176 | 0.0 | 0.0 | 0.00 | 1.17 | 0.02 | 95 | 1015.2 |
| 20260505163204 | 50 | 176 | 0.0 | 0.0 | 0.00 | 1.17 | 0.02 | 96 | 1015.2 |
| 20260505162928 | 51 | 176 | 0.0 | 0.0 | 0.00 | 1.19 | 0.02 | 95 | 1015.2 |
| 20260505162205 | 51 | 176 | 0.0 | 0.0 | 0.00 | 1.21 | 0.02 | 96 | 1015.2 |
| 20260505161705 | 51 | 176 | 0.0 | 0.0 | 0.00 | 1.23 | 0.02 | 96 | 1015.1 |
| 20260505161205 | 51 | 176 | 0.0 | 0.0 | 0.00 | 1.25 | 0.02 | 96 | 1015.2 |
| 20260505160659 | 51 | 176 | 0.0 | 0.0 | 0.00 | 1.25 | 0.02 | 96 | 1015.2 |
| 20260505160157 | 51 | 176 | 0.0 | 0.0 | 0.00 | 1.25 | 0.02 | 96 | 1015.1 |
| 20260505153153 | 50 | 178 | 0.0 | 0.0 | 0.00 | 1.25 | 0.02 | 96 | 1015.1 |
| 20260505152654 | 49 | 178 | 0.0 | 0.0 | 0.00 | 1.25 | 0.02 | 96 | 1015.1 |
| 20260505152155 | 49 | 178 | 0.0 | 0.0 | 0.00 | 1.25 | 0.02 | 96 | 1015.0 |
| 20260505151653 | 49 | 178 | 0.0 | 0.0 | 0.00 | 1.25 | 0.02 | 96 | 1014.9 |
| 20260505151149 | 49 | 178 | 0.0 | 0.0 | 0.00 | 1.25 | 0.02 | 96 | 1014.9 |
| 20260505150648 | 49 | 178 | 0.0 | 0.0 | 0.00 | 1.25 | 0.02 | 96 | 1014.9 |
| 20260505150146 | 49 | 178 | 0.0 | 0.0 | 0.00 | 1.25 | 0.02 | 96 | 1014.8 |
| 20260505140624 | 48 | 178 | 0.0 | 0.0 | 0.00 | 1.25 | 0.02 | 96 | 1014.5 |
| 20260505140121 | 48 | 178 | 0.0 | 0.0 | 0.00 | 1.25 | 0.02 | 96 | 1014.4 |
| 20260505124553 | 48 | 178 | 0.0 | 0.0 | 0.00 | 1.25 | 0.02 | 96 | 1014.4 |
| 20260505124054 | 48 | 178 | 0.0 | 0.0 | 0.00 | 1.25 | 0.02 | 96 | 1014.4 |
| 20260505123551 | 48 | 178 | 0.0 | 0.0 | 0.00 | 1.25 | 0.02 | 96 | 1014.3 |
| 20260505123050 | 48 | 178 | 0.0 | 0.0 | 0.00 | 1.25 | 0.02 | 96 | 1014.2 |
| 20260505122546 | 48 | 178 | 0.0 | 0.0 | 0.00 | 1.25 | 0.02 | 96 | 1014.2 |
| 20260505122043 | 48 | 178 | 0.0 | 0.0 | 0.00 | 1.25 | 0.02 | 96 | 1014.0 |
| 20260505121541 | 48 | 178 | 0.0 | 0.0 | 0.00 | 1.25 | 0.02 | 96 | 1014.2 |
| 20260505121041 | 48 | 178 | 0.0 | 0.0 | 0.00 | 1.25 | 0.02 | 96 | 1014.0 |
| 20260505120543 | 48 | 178 | 0.0 | 0.0 | 0.00 | 1.25 | 0.02 | 96 | 1014.0 |
| 20260505120040 | 48 | 178 | 0.0 | 0.0 | 0.00 | 1.25 | 0.02 | 95 | 1014.0 |
| 20260505115540 | 48 | 178 | 0.0 | 0.0 | 0.00 | 1.25 | 0.02 | 96 | 1014.0 |
| 20260505115038 | 48 | 178 | 0.0 | 0.0 | 0.00 | 1.25 | 0.02 | 96 | 1014.0 |
| 20260505114539 | 48 | 178 | 0.0 | 0.0 | 0.00 | 1.25 | 0.02 | 96 | 1014.2 |
| 20260505114039 | 48 | 178 | 0.0 | 0.0 | 0.00 | 1.25 | 0.02 | 95 | 1014.2 |
| 20260505114018 | 48 | 178 | 0.0 | 0.0 | 0.00 | 1.25 | 0.02 | 95 | 1014.2 |
| 20260505113033 | 48 | 178 | 0.0 | 0.0 | 0.00 | 1.25 | 0.02 | 95 | 1014.2 |
| 20260505112736 | 48 | 178 | 0.0 | 0.0 | 0.00 | 1.25 | 0.02 | 95 | 1014.3 |
| 20260505112621 | 48 | 178 | 0.0 | 0.0 | 0.00 | 1.25 | 0.02 | 95 | 1014.3 |
| 20260505111529 | 48 | 178 | 0.0 | 0.0 | 0.00 | 1.25 | 0.02 | 96 | 1014.3 |
| 20260505111025 | 48 | 178 | 0.0 | 0.0 | 0.00 | 1.25 | 0.02 | 96 | 1014.4 |
| 20260505110523 | 48 | 178 | 0.0 | 0.0 | 0.00 | 1.25 | 0.02 | 96 | 1014.4 |
| 20260505110243 | 48 | 178 | 0.0 | 0.0 | 0.00 | 1.25 | 0.02 | 96 | 1014.3 |
| 20260505102013 | 48 | 178 | 0.0 | 0.0 | 0.00 | 1.25 | 0.02 | 95 | 1014.3 |
| 20260505101513 | 48 | 178 | 0.0 | 0.0 | 0.00 | 1.25 | 0.02 | 95 | 1014.5 |
| 20260505101012 | 48 | 178 | 0.0 | 0.0 | 0.00 | 1.25 | 0.02 | 96 | 1014.6 |
| 20260505100512 | 48 | 178 | 0.0 | 0.0 | 0.00 | 1.25 | 0.02 | 96 | 1014.6 |
| 20260505100013 | 48 | 178 | 0.0 | 0.0 | 0.00 | 1.25 | 0.02 | 95 | 1014.6 |
| 20260505095956 | 47 | 178 | 0.0 | 0.0 | 0.01 | 1.25 | 0.02 | 95 | 1014.5 |
| 20260505095013 | 48 | 178 | 0.0 | 0.0 | 0.01 | 1.25 | 0.02 | 95 | 1014.4 |
| 20260505094514 | 48 | 178 | 0.0 | 0.0 | 0.01 | 1.25 | 0.02 | 95 | 1014.5 |
| 20260505094014 | 48 | 178 | 0.0 | 0.0 | 0.01 | 1.25 | 0.02 | 95 | 1014.8 |
| 20260505093512 | 48 | 178 | 0.0 | 0.0 | 0.01 | 1.25 | 0.02 | 95 | 1014.9 |
| 20260505093014 | 47 | 178 | 0.0 | 0.0 | 0.02 | 1.25 | 0.02 | 95 | 1014.8 |
| 20260505092511 | 47 | 178 | 0.0 | 0.0 | 0.02 | 1.25 | 0.02 | 95 | 1014.8 |
| 20260505092010 | 48 | 178 | 0.0 | 0.0 | 0.02 | 1.25 | 0.02 | 95 | 1014.9 |
| 20260505091509 | 47 | 178 | 0.0 | 0.0 | 0.02 | 1.25 | 0.02 | 95 | 1014.9 |